Location: Newark
(25.7634°N, 80.1913°W)
Time: 11:18:44
(UTC+00:00)

LightSail 2 - Visible Passes

Search period start: 22 January 2020 00:00
Search period end: 01 February 2020 00:00
Orbit: 704 x 720 km, 24.0° (Epoch: 21 January)

Date Brightness Start Highest point End Pass type
(mag) Time Alt. Az. Time Alt. Az. Time Alt. Az.
22 Jan 5.2 00:16:37 10° W 00:21:47 74° S 00:23:47 38° ESE visible
22 Jan 8.0 02:02:08 10° W 02:02:44 13° W 02:02:44 13° W visible
22 Jan 5.4 23:18:12 10° W 23:23:21 71° S 23:28:31 10° E visible
23 Jan 5.6 01:03:41 10° W 01:08:00 56° SW 01:08:00 56° SW visible
24 Jan 5.3 00:05:14 10° W 00:10:23 72° S 00:13:19 26° ESE visible
24 Jan 7.6 01:50:51 10° W 01:52:16 18° W 01:52:16 18° W visible
25 Jan 5.5 00:52:20 10° W 00:57:22 53° SSW 00:57:37 53° S visible
25 Jan 5.5 23:53:51 10° W 23:58:57 62° S 00:03:02 16° ESE visible
26 Jan 7.3 01:39:41 10° W 01:42:00 22° WSW 01:42:00 22° WSW visible
27 Jan 6.2 00:41:03 10° W 00:45:51 39° SSW 00:47:28 31° SSE visible
27 Jan 5.9 23:42:30 10° W 23:47:27 48° SSW 23:52:25 10° ESE visible
28 Jan 7.2 01:28:49 10° WSW 01:31:59 20° SSW 01:31:59 20° SSW visible
29 Jan 6.8 00:29:56 10° WSW 00:34:16 27° SSW 00:37:37 14° SSE visible
29 Jan 6.6 23:31:15 10° W 23:35:54 35° SSW 23:40:34 10° SE visible
30 Jan 7.7 01:18:48 10° SW 01:20:59 13° SSW 01:22:18 12° S visible
31 Jan 7.5 00:19:16 10° WSW 00:22:38 18° SSW 00:26:01 10° SSE visible
31 Jan 7.3 23:20:13 10° WSW 23:24:16 23° SSW 23:28:19 10° SSE visible
